Regional Weather Roundup
Issued by NWS

Home | Current Version | Previous Version | Graphics & Text | Print | Product List | Glossary On
Versions: 1 2 3 4 5 6 7 8 9 10 11 12 13 14 15 16 17 18 19 20 21 22 23 24 25 26 27 28 29 30 31 32 33 34 35 36 37 38 39 40 41 42 43 44 45 46 47 48 49 50
358
ASUS45 KSLC 192010
RWRUT

UTAH REGIONAL WEATHER ROUNDUP
NATIONAL WEATHER SERVICE SALT LAKE CITY UT
200 PM MDT TUE SEP 19 2017

UTZ001>011-023>025-192100-

NORTHERN UTAH

CITY           SKY/WX    TMP DP  RH WIND       PRES   REMARKS
BRIGHAM CITY   PTSUNNY   54  34  45 CALM      29.93F
DUGWAY         PTSUNNY   65  32  29 N10G17    29.89F
HILL AFB       PTSUNNY   49  37  63 E7        29.95S
LOGAN            N/A     54  35  48 VRB5      29.92F
OGDEN          CLOUDY    52  37  56 SE9       29.94F
SALT LAKE CITY CLOUDY    57  37  47 NE6       29.94F
TOOELE VALLEY  CLOUDY    59  39  47 N8        29.94F
WENDOVER       CLOUDY    64  26  23 W17G25    29.89F
HEBER CITY     DRIZZLE   46  37  71 E7        29.95S
WEST JORDAN    CLOUDY    53  42  66 CALM      29.96S

$$

UTZ011>015-024>027-192100-

CENTRAL/NORTHEAST UTAH

CITY           SKY/WX    TMP DP  RH WIND       PRES   REMARKS
PROVO AIRPORT  PTSUNNY   55  41  59 N5        29.94F
MOAB/CANYONLAN MOSUNNY   79  28  15 SW17G32   29.77S
DELTA          MOSUNNY   70  34  26 N9G18     29.86F
PRICE          MOSUNNY   71  34  25 W20G28    29.83S
ROOSEVELT      PTSUNNY   64  34  32 W25G38    29.81S
VERNAL         PTSUNNY   70  38  31 W18G30    29.77R

$$

UTZ013>016-019>022-027-192100-

SOUTHERN UTAH

CITY           SKY/WX    TMP DP  RH WIND       PRES   REMARKS
BRYCE CANYON   SUNNY     66  35  31 SW22G32   30.02F
CEDAR CITY     SUNNY     74  36  25 SW20G30   29.91F
MILFORD        SUNNY     76  36  23 SW26G36   29.86F
ST GEORGE      CLOUDY    84  39  20 W9G16     29.81F
HANKSVILLE     PTSUNNY   81  32  17 SW18G28   29.79F
BLANDING         N/A     74  23  14 SW16G25   30.00F

$$

REGIONAL REPORTS     COLORADO/ARIZONA

CITY           SKY/WX    TMP DP  RH WIND       PRES   REMARKS
CRAIG, CO      CLOUDY    52  34  50 N35G43    29.86R
GRAND JUNCTION MOSUNNY   79  24  13 SW8       29.76F
RIFLE, CO      SUNNY     78  22  12 W26G38    29.78F
MONTROSE, CO   CLOUDY    75  21  13 SW13      29.87F
CORTEZ, CO     SUNNY     76  14   9 SW20G31   29.96F
PAGE, AZ       SUNNY     82  33  17 MISG      29.83F
GRAND CANYON   SUNNY     72  30  21 SW17G31   30.06F
KINGMAN, AZ    SUNNY     84  35  17 SW21G26   29.90F
FLAGSTAFF, AZ  MOSUNNY   68  17  14 SW28G38   30.11F

$$

REGIONAL REPORTS    NEVADA/IDAHO/WYOMING

CITY           SKY/WX    TMP DP  RH WIND       PRES   REMARKS
LAS VEGAS, NV  MOSUNNY   87  42  20 SW13G20   29.77F
ELY, NY        MOSUNNY   67  26  21 W15G23    29.94F
ELKO, NV       SUNNY     60  18  19 W21G30    29.96S
POCATELLO, ID  CLOUDY    55  34  45 SW28G39   29.89F
BURLEY, ID     PTSUNNY   52  36  54 W13       29.90F
FORT BRIDGER,  LGT RAIN  38  38  99 W22G29    30.00S WCI  28
EVANSTON, WY   FLURRIES  37  34  89 SW15      29.98S WCI  28
ROCK SPRINGS,  CLOUDY    37  33  85 W24G30    29.94F WCI  26

$$




USA.gov is the U.S. government's official web portal to all federal, state and local government web resources and services.